Time,TemperatureF,DewpointF,PressureIn,WindDirection,WindDirectionDegrees,WindSpeedMPH,WindSpeedGustMPH,Humidity,HourlyPrecipIn,Conditions,Clouds,dailyrainin,SoftwareType,DateUTC
2013-02-25 00:01:00,-999.0,-99.9,30.12,SSW,195,3.0,3.0,-999,-99.99,,,-99.99,,2013-02-25 05:01:00,
2013-02-25 00:11:00,-999.0,-99.9,30.12,South,169,4.0,5.0,-999,-99.99,,,-99.99,,2013-02-25 05:11:00,
2013-02-25 00:22:00,19.0,-99.9,30.12,South,183,5.0,5.0,-999,-99.99,,,-99.99,,2013-02-25 05:22:00,
2013-02-25 00:32:00,-999.0,-99.9,30.12,SSW,210,4.0,4.0,-999,-99.99,,,-99.99,,2013-02-25 05:32:00,
2013-02-25 00:42:00,-999.0,-99.9,30.13,SSW,207,3.0,4.0,-999,-99.99,,,-99.99,,2013-02-25 05:42:00,
2013-02-25 00:52:00,20.0,-99.9,30.13,SSW,195,3.0,4.0,-999,-99.99,,,-99.99,,2013-02-25 05:52:00,
2013-02-25 01:03:00,-999.0,-99.9,30.13,SSE,149,1.0,2.0,-999,-99.99,,,-99.99,,2013-02-25 06:03:00,
2013-02-25 01:12:00,21.0,-99.9,30.13,SE,142,2.0,2.0,-999,-99.99,,,-99.99,,2013-02-25 06:12:00,
2013-02-25 01:22:00,-999.0,-99.9,30.13,SW,222,1.0,2.0,-999,-99.99,,,-99.99,,2013-02-25 06:22:00,
2013-02-25 01:32:00,-999.0,-99.9,30.13,SSE,155,2.0,2.0,-999,-99.99,,,-99.99,,2013-02-25 06:32:00,
2013-02-25 01:42:00,-999.0,-99.9,30.14,SSE,159,2.0,2.0,-999,-99.99,,,-99.99,,2013-02-25 06:42:00,
2013-02-25 01:52:00,21.0,-99.9,30.14,SSE,168,2.0,2.0,-999,-99.99,,,-99.99,,2013-02-25 06:52:00,
2013-02-25 02:01:00,-999.0,-99.9,30.14,SSE,152,2.0,2.0,-999,-99.99,,,-99.99,,2013-02-25 07:01:00,
2013-02-25 02:11:00,-999.0,-99.9,30.14,SSE,158,2.0,3.0,-999,-99.99,,,-99.99,,2013-02-25 07:11:00,
2013-02-25 02:21:00,20.0,-99.9,30.14,SSE,158,3.0,4.0,-999,-99.99,,,-99.99,,2013-02-25 07:21:00,
2013-02-25 02:32:00,-999.0,-99.9,30.14,South,169,3.0,3.0,-999,-99.99,,,-99.99,,2013-02-25 07:32:00,
2013-02-25 02:42:00,-999.0,-99.9,30.14,South,191,2.0,3.0,-999,-99.99,,,-99.99,,2013-02-25 07:42:00,
2013-02-25 02:52:00,21.0,-99.9,30.14,SSE,157,2.0,3.0,-999,-99.99,,,-99.99,,2013-02-25 07:52:00,
2013-02-25 03:01:00,-999.0,-99.9,30.14,SSE,158,2.0,3.0,-999,-99.99,,,-99.99,,2013-02-25 08:01:00,
2013-02-25 03:11:00,-999.0,-99.9,30.15,South,170,2.0,3.0,-999,-99.99,,,-99.99,,2013-02-25 08:11:00,
2013-02-25 03:22:00,21.0,-99.9,30.15,South,174,3.0,3.0,-999,-99.99,,,-99.99,,2013-02-25 08:22:00,
2013-02-25 03:32:00,-999.0,-99.9,30.15,South,181,2.0,3.0,-999,-99.99,,,-99.99,,2013-02-25 08:32:00,
2013-02-25 03:42:00,-999.0,-99.9,30.15,South,185,4.0,4.0,-999,-99.99,,,-99.99,,2013-02-25 08:42:00,
2013-02-25 03:52:00,22.0,-99.9,30.15,SSW,192,3.0,4.0,-999,-99.99,,,-99.99,,2013-02-25 08:52:00,
2013-02-25 04:02:00,-999.0,-99.9,30.15,South,174,2.0,3.0,-999,-99.99,,,-99.99,,2013-02-25 09:02:00,
2013-02-25 04:12:00,-999.0,-99.9,30.15,SSE,168,1.0,2.0,-999,-99.99,,,-99.99,,2013-02-25 09:12:00,
2013-02-25 04:21:00,22.0,-99.9,30.16,SSE,166,1.0,2.0,-999,-99.99,,,-99.99,,2013-02-25 09:21:00,
2013-02-25 04:32:00,-999.0,-99.9,30.16,SSW,192,2.0,2.0,-999,-99.99,,,-99.99,,2013-02-25 09:32:00,
2013-02-25 04:42:00,-999.0,-99.9,30.16,South,172,0.0,2.0,-999,-99.99,,,-99.99,,2013-02-25 09:42:00,
2013-02-25 04:52:00,-999.0,-99.9,30.16,South,184,1.0,3.0,-999,-99.99,,,-99.99,,2013-02-25 09:52:00,
2013-02-25 05:01:00,-999.0,-99.9,30.16,SSW,197,1.0,2.0,-999,-99.99,,,-99.99,,2013-02-25 10:01:00,
2013-02-25 05:22:00,23.0,-99.9,30.16,ESE,112,1.0,2.0,-999,-99.99,,,-99.99,,2013-02-25 10:22:00,
2013-02-25 05:52:00,23.0,-99.9,30.17,SSE,167,1.0,2.0,-999,-99.99,,,-99.99,,2013-02-25 10:52:00,
2013-02-25 06:01:00,-999.0,-99.9,30.17,South,189,2.0,2.0,-999,-99.99,,,-99.99,,2013-02-25 11:01:00,
2013-02-25 06:22:00,-999.0,-99.9,30.16,East,97,2.0,3.0,-999,-99.99,,,-99.99,,2013-02-25 11:22:00,
2013-02-25 06:32:00,-999.0,-99.9,30.16,East,99,2.0,2.0,-999,-99.99,,,-99.99,,2013-02-25 11:32:00,
2013-02-25 06:42:00,-999.0,-99.9,30.16,East,83,3.0,3.0,-999,-99.99,,,-99.99,,2013-02-25 11:42:00,
2013-02-25 06:52:00,24.0,-99.9,30.16,ESE,118,2.0,3.0,-999,-99.99,,,-99.99,,2013-02-25 11:52:00,
2013-02-25 07:02:00,-999.0,-99.9,30.17,East,96,0.0,1.0,-999,-99.99,,,-99.99,,2013-02-25 12:02:00,
2013-02-25 07:11:00,-999.0,-99.9,30.17,WSW,246,0.0,2.0,-999,-99.99,,,-99.99,,2013-02-25 12:11:00,
2013-02-25 07:22:00,24.0,-99.9,30.17,SW,214,2.0,2.0,-999,-99.99,,,-99.99,,2013-02-25 12:22:00,
2013-02-25 07:32:00,-999.0,-99.9,30.17,ESE,110,3.0,5.0,-999,-99.99,,,-99.99,,2013-02-25 12:32:00,
2013-02-25 07:42:00,-999.0,-99.9,30.17,East,84,1.0,5.0,-999,-99.99,,,-99.99,,2013-02-25 12:42:00,
2013-02-25 07:57:00,25.0,-99.9,30.17,South,174,2.0,2.0,-999,-99.99,,,-99.99,,2013-02-25 12:57:00,
2013-02-25 08:03:00,-999.0,-99.9,30.17,SW,236,2.0,4.0,-999,-99.99,,,-99.99,,2013-02-25 13:03:00,
2013-02-25 08:23:00,25.0,-99.9,30.18,SW,230,0.0,3.0,-999,-99.99,,,-99.99,,2013-02-25 13:23:00,
2013-02-25 08:32:00,-999.0,-99.9,30.18,East,90,3.0,4.0,-999,-99.99,,,-99.99,,2013-02-25 13:32:00,
2013-02-25 08:42:00,-999.0,-99.9,30.18,SSW,212,3.0,4.0,-999,-99.99,,,-99.99,,2013-02-25 13:42:00,
2013-02-25 08:52:00,25.0,-99.9,30.18,South,181,3.0,4.0,-999,-99.99,,,-99.99,,2013-02-25 13:52:00,
2013-02-25 09:04:00,-999.0,-99.9,30.18,South,189,3.0,6.0,-999,-99.99,,,-99.99,,2013-02-25 14:04:00,
2013-02-25 09:18:00,-999.0,-99.9,30.18,SSE,154,3.0,4.0,-999,-99.99,,,-99.99,,2013-02-25 14:18:00,
2013-02-25 09:32:00,-999.0,-99.9,30.18,South,170,4.0,6.0,-999,-99.99,,,-99.99,,2013-02-25 14:32:00,
2013-02-25 09:42:00,-999.0,-99.9,30.18,SSE,165,4.0,5.0,-999,-99.99,,,-99.99,,2013-02-25 14:42:00,
2013-02-25 09:52:00,-999.0,-99.9,30.19,South,188,3.0,5.0,-999,-99.99,,,-99.99,,2013-02-25 14:52:00,
2013-02-25 10:03:00,-999.0,-99.9,30.19,South,172,3.0,4.0,-999,-99.99,,,-99.99,,2013-02-25 15:03:00,
2013-02-25 10:11:00,-999.0,-99.9,30.19,SSE,156,3.0,5.0,-999,-99.99,,,-99.99,,2013-02-25 15:11:00,
2013-02-25 10:22:00,26.0,-99.9,30.19,South,175,3.0,4.0,-999,-99.99,,,-99.99,,2013-02-25 15:22:00,
2013-02-25 10:32:00,-999.0,-99.9,30.19,SSE,151,4.0,5.0,-999,-99.99,,,-99.99,,2013-02-25 15:32:00,
2013-02-25 10:42:00,-999.0,-99.9,30.19,SE,144,4.0,5.0,-999,-99.99,,,-99.99,,2013-02-25 15:42:00,
2013-02-25 10:52:00,27.0,-99.9,30.19,SSE,149,5.0,6.0,-999,-99.99,,,-99.99,,2013-02-25 15:52:00,
2013-02-25 11:02:00,-999.0,-99.9,30.19,SE,144,5.0,6.0,-999,-99.99,,,-99.99,,2013-02-25 16:02:00,
2013-02-25 11:12:00,-999.0,-99.9,30.19,SE,139,4.0,5.0,-999,-99.99,,,-99.99,,2013-02-25 16:12:00,
2013-02-25 11:22:00,-999.0,-99.9,30.19,SSE,148,4.0,5.0,-999,-99.99,,,-99.99,,2013-02-25 16:22:00,
2013-02-25 11:32:00,-999.0,-99.9,30.19,SE,145,4.0,5.0,-999,-99.99,,,-99.99,,2013-02-25 16:32:00,
2013-02-25 11:42:00,-999.0,-99.9,30.19,SSE,153,4.0,5.0,-999,-99.99,,,-99.99,,2013-02-25 16:42:00,
2013-02-25 11:52:00,29.0,-99.9,30.19,South,174,4.0,6.0,-999,-99.99,,,-99.99,,2013-02-25 16:52:00,
2013-02-25 12:02:00,-999.0,-99.9,30.19,South,174,3.0,4.0,-999,-99.99,,,-99.99,,2013-02-25 17:02:00,
2013-02-25 12:11:00,-999.0,-99.9,30.19,SSE,150,5.0,6.0,-999,-99.99,,,-99.99,,2013-02-25 17:11:00,
2013-02-25 12:22:00,28.0,-99.9,30.19,SE,145,5.0,6.0,-999,-99.99,,,-99.99,,2013-02-25 17:22:00,
2013-02-25 12:32:00,-999.0,-99.9,30.19,SSE,156,3.0,5.0,-999,-99.99,,,-99.99,,2013-02-25 17:32:00,
2013-02-25 12:42:00,-999.0,-99.9,30.19,SE,142,5.0,5.0,-999,-99.99,,,-99.99,,2013-02-25 17:42:00,
2013-02-25 12:52:00,-999.0,-99.9,30.19,SSE,149,5.0,6.0,-999,-99.99,,,-99.99,,2013-02-25 17:52:00,
2013-02-25 13:02:00,-999.0,-99.9,30.19,SSE,147,4.0,6.0,-999,-99.99,,,-99.99,,2013-02-25 18:02:00,
2013-02-25 13:12:00,-999.0,-99.9,30.18,SE,127,4.0,5.0,-999,-99.99,,,-99.99,,2013-02-25 18:12:00,
2013-02-25 13:22:00,-999.0,-99.9,30.18,SE,127,4.0,5.0,-999,-99.99,,,-99.99,,2013-02-25 18:22:00,
2013-02-25 13:33:00,-999.0,-99.9,30.18,SSE,158,4.0,5.0,-999,-99.99,,,-99.99,,2013-02-25 18:33:00,
2013-02-25 13:42:00,-999.0,-99.9,30.17,SSW,195,4.0,6.0,-999,-99.99,,,-99.99,,2013-02-25 18:42:00,
2013-02-25 13:52:00,30.0,-99.9,30.18,South,179,4.0,6.0,-999,-99.99,,,-99.99,,2013-02-25 18:52:00,
2013-02-25 14:02:00,-999.0,-99.9,30.18,SSW,192,4.0,6.0,-999,-99.99,,,-99.99,,2013-02-25 19:02:00,
2013-02-25 14:11:00,-999.0,-99.9,30.17,South,182,6.0,8.0,-999,-99.99,,,-99.99,,2013-02-25 19:11:00,
2013-02-25 14:22:00,30.0,-99.9,30.17,South,174,6.0,8.0,-999,-99.99,,,-99.99,,2013-02-25 19:22:00,
2013-02-25 14:32:00,-999.0,-99.9,30.17,South,171,5.0,7.0,-999,-99.99,,,-99.99,,2013-02-25 19:32:00,
2013-02-25 14:42:00,-999.0,-99.9,30.17,South,184,5.0,8.0,-999,-99.99,,,-99.99,,2013-02-25 19:42:00,
2013-02-25 14:52:00,31.0,-99.9,30.17,South,188,6.0,8.0,-999,-99.99,,,-99.99,,2013-02-25 19:52:00,
2013-02-25 15:01:00,-999.0,-99.9,30.17,SSE,152,5.0,8.0,-999,-99.99,,,-99.99,,2013-02-25 20:01:00,
2013-02-25 15:11:00,-999.0,-99.9,30.17,SE,144,6.0,7.0,-999,-99.99,,,-99.99,,2013-02-25 20:11:00,
2013-02-25 15:22:00,31.0,-99.9,30.17,SE,139,4.0,7.0,-999,-99.99,,,-99.99,,2013-02-25 20:22:00,
2013-02-25 15:32:00,-999.0,-99.9,30.17,SSE,151,7.0,8.0,-999,-99.99,,,-99.99,,2013-02-25 20:32:00,
2013-02-25 15:42:00,-999.0,-99.9,30.16,SE,145,5.0,9.0,-999,-99.99,,,-99.99,,2013-02-25 20:42:00,
2013-02-25 15:52:00,-999.0,-99.9,30.16,SE,143,6.0,7.0,-999,-99.99,,,-99.99,,2013-02-25 20:52:00,
2013-02-25 16:02:00,-999.0,-99.9,30.17,SE,143,6.0,7.0,-999,-99.99,,,-99.99,,2013-02-25 21:02:00,
2013-02-25 16:11:00,-999.0,-99.9,30.16,SE,142,5.0,7.0,-999,-99.99,,,-99.99,,2013-02-25 21:11:00,
2013-02-25 16:22:00,-999.0,-99.9,30.16,SE,132,5.0,6.0,-999,-99.99,,,-99.99,,2013-02-25 21:22:00,
2013-02-25 16:32:00,-999.0,-99.9,30.16,SE,139,6.0,7.0,-999,-99.99,,,-99.99,,2013-02-25 21:32:00,
2013-02-25 16:42:00,-999.0,-99.9,30.17,SE,143,6.0,8.0,-999,-99.99,,,-99.99,,2013-02-25 21:42:00,
2013-02-25 16:52:00,31.0,-99.9,30.17,SE,146,6.0,7.0,-999,-99.99,,,-99.99,,2013-02-25 21:52:00,
2013-02-25 17:02:00,-999.0,-99.9,30.16,SE,144,6.0,7.0,-999,-99.99,,,-99.99,,2013-02-25 22:02:00,
2013-02-25 17:11:00,-999.0,-99.9,30.16,SSE,147,6.0,8.0,-999,-99.99,,,-99.99,,2013-02-25 22:11:00,
2013-02-25 17:21:00,31.0,-99.9,30.16,SE,142,7.0,8.0,-999,-99.99,,,-99.99,,2013-02-25 22:21:00,
2013-02-25 17:32:00,-999.0,-99.9,30.16,SE,145,6.0,7.0,-999,-99.99,,,-99.99,,2013-02-25 22:32:00,
2013-02-25 17:42:00,-999.0,-99.9,30.16,SE,139,6.0,8.0,-999,-99.99,,,-99.99,,2013-02-25 22:42:00,
2013-02-25 17:52:00,-999.0,-99.9,30.16,SE,135,4.0,7.0,-999,-99.99,,,-99.99,,2013-02-25 22:52:00,
2013-02-25 18:01:00,-999.0,-99.9,30.16,SSE,148,5.0,6.0,-999,-99.99,,,-99.99,,2013-02-25 23:01:00,
2013-02-25 18:11:00,-999.0,-99.9,30.17,SSE,151,4.0,5.0,-999,-99.99,,,-99.99,,2013-02-25 23:11:00,
2013-02-25 18:22:00,31.0,-99.9,30.17,SSE,153,5.0,6.0,-999,-99.99,,,-99.99,,2013-02-25 23:22:00,
2013-02-25 18:32:00,-999.0,-99.9,30.17,SE,128,4.0,5.0,-999,-99.99,,,-99.99,,2013-02-25 23:32:00,
2013-02-25 18:42:00,-999.0,-99.9,30.17,SE,128,3.0,4.0,-999,-99.99,,,-99.99,,2013-02-25 23:42:00,
2013-02-25 18:52:00,31.0,-99.9,30.17,ESE,120,3.0,4.0,-999,-99.99,,,-99.99,,2013-02-25 23:52:00,
2013-02-25 19:02:00,-999.0,-99.9,30.17,ESE,108,4.0,4.0,-999,-99.99,,,-99.99,,2013-02-26 00:02:00,
2013-02-25 19:12:00,-999.0,-99.9,30.17,ESE,112,3.0,4.0,-999,-99.99,,,-99.99,,2013-02-26 00:12:00,
2013-02-25 19:22:00,-999.0,-99.9,30.17,ESE,114,4.0,4.0,-999,-99.99,,,-99.99,,2013-02-26 00:22:00,
2013-02-25 19:32:00,-999.0,-99.9,30.18,ESE,114,4.0,5.0,-999,-99.99,,,-99.99,,2013-02-26 00:32:00,
2013-02-25 19:42:00,-999.0,-99.9,30.18,ESE,104,3.0,3.0,-999,-99.99,,,-99.99,,2013-02-26 00:42:00,
2013-02-25 19:52:00,30.0,-99.9,30.18,ESE,103,3.0,4.0,-999,-99.99,,,-99.99,,2013-02-26 00:52:00,
2013-02-25 20:02:00,-999.0,-99.9,30.18,East,83,4.0,5.0,-999,-99.99,,,-99.99,,2013-02-26 01:02:00,
2013-02-25 20:11:00,-999.0,-99.9,30.19,ESE,123,3.0,5.0,-999,-99.99,,,-99.99,,2013-02-26 01:11:00,
2013-02-25 20:22:00,30.0,-99.9,30.18,ESE,104,3.0,4.0,-999,-99.99,,,-99.99,,2013-02-26 01:22:00,
2013-02-25 20:32:00,-999.0,-99.9,30.18,East,96,3.0,4.0,-999,-99.99,,,-99.99,,2013-02-26 01:32:00,
2013-02-25 20:42:00,-999.0,-99.9,30.18,ESE,109,3.0,4.0,-999,-99.99,,,-99.99,,2013-02-26 01:42:00,
2013-02-25 20:52:00,-999.0,-99.9,30.18,ESE,119,2.0,3.0,-999,-99.99,,,-99.99,,2013-02-26 01:52:00,
2013-02-25 21:01:00,-999.0,-99.9,30.18,SE,125,4.0,5.0,-999,-99.99,,,-99.99,,2013-02-26 02:01:00,
2013-02-25 21:12:00,-999.0,-99.9,30.18,ESE,106,4.0,5.0,-999,-99.99,,,-99.99,,2013-02-26 02:12:00,
2013-02-25 21:22:00,29.0,-99.9,30.18,East,81,4.0,5.0,-999,-99.99,,,-99.99,,2013-02-26 02:22:00,
2013-02-25 21:32:00,-999.0,-99.9,30.18,East,86,5.0,6.0,-999,-99.99,,,-99.99,,2013-02-26 02:32:00,
2013-02-25 21:42:00,-999.0,-99.9,30.17,ESE,103,6.0,7.0,-999,-99.99,,,-99.99,,2013-02-26 02:42:00,
2013-02-25 21:52:00,29.0,-99.9,30.17,ESE,107,4.0,6.0,-999,-99.99,,,-99.99,,2013-02-26 02:52:00,
2013-02-25 22:02:00,-999.0,-99.9,30.17,ESE,122,6.0,6.0,-999,-99.99,,,-99.99,,2013-02-26 03:02:00,
2013-02-25 22:12:00,-999.0,-99.9,30.17,SE,127,4.0,9.0,-999,-99.99,,,-99.99,,2013-02-26 03:12:00,
2013-02-25 22:22:00,29.0,-99.9,30.17,SE,126,3.0,6.0,-999,-99.99,,,-99.99,,2013-02-26 03:22:00,
2013-02-25 22:32:00,-999.0,-99.9,30.17,SE,125,2.0,5.0,-999,-99.99,,,-99.99,,2013-02-26 03:32:00,
2013-02-25 22:42:00,-999.0,-99.9,30.17,ESE,119,4.0,5.0,-999,-99.99,,,-99.99,,2013-02-26 03:42:00,
2013-02-25 22:52:00,29.0,-99.9,30.17,SE,124,4.0,5.0,-999,-99.99,,,-99.99,,2013-02-26 03:52:00,
2013-02-25 23:02:00,-999.0,-99.9,30.17,East,92,5.0,5.0,-999,-99.99,,,-99.99,,2013-02-26 04:02:00,
2013-02-25 23:12:00,-999.0,-99.9,30.16,ESE,107,5.0,7.0,-999,-99.99,,,-99.99,,2013-02-26 04:12:00,
2013-02-25 23:22:00,29.0,-99.9,30.17,East,96,4.0,6.0,-999,-99.99,,,-99.99,,2013-02-26 04:22:00,
2013-02-25 23:32:00,-999.0,-99.9,30.16,East,99,5.0,6.0,-999,-99.99,,,-99.99,,2013-02-26 04:32:00,
2013-02-25 23:43:00,-999.0,-99.9,30.16,ENE,73,7.0,8.0,-999,-99.99,,,-99.99,,2013-02-26 04:43:00,
2013-02-25 23:52:00,29.0,-99.9,30.16,ENE,77,6.0,8.0,-999,-99.99,,,-99.99,,2013-02-26 04:52:00,